Time,TemperatureF,DewpointF,PressureIn,WindDirection,WindDirectionDegrees,WindSpeedMPH,WindSpeedGustMPH,Humidity,HourlyPrecipIn,Conditions,Clouds,dailyrainin,SolarRadiationWatts/m^2,SoftwareType,DateUTC
2013-07-31 00:08:00,61.2,47.2,30.01,East,81,9.0,10.0,60,0.00,,,0.00,91,Wunderground v.1.15,2013-07-31 06:08:00,
2013-07-31 00:14:00,61.1,44.8,30.01,ENE,77,7.0,8.0,55,0.00,,,0.00,90,Wunderground v.1.15,2013-07-31 06:14:00,
2013-07-31 00:20:00,61.3,45.0,30.03,East,93,6.0,9.0,55,0.00,,,0.00,90,Wunderground v.1.15,2013-07-31 06:20:00,
2013-07-31 00:26:00,61.5,44.7,30.02,East,94,7.0,9.0,54,0.00,,,0.00,91,Wunderground v.1.15,2013-07-31 06:26:00,
2013-07-31 00:32:00,60.7,45.8,30.04,East,92,8.0,9.0,58,0.00,,,0.00,90,Wunderground v.1.15,2013-07-31 06:32:00,
2013-07-31 00:38:00,60.0,47.4,30.02,East,99,9.0,10.0,63,0.00,,,0.00,88,Wunderground v.1.15,2013-07-31 06:38:00,
2013-07-31 00:44:00,58.9,47.2,30.04,ESE,108,9.0,9.0,65,0.00,,,0.00,84,Wunderground v.1.15,2013-07-31 06:44:00,
2013-07-31 00:50:00,58.5,48.0,30.02,East,91,8.0,8.0,68,0.00,,,0.00,83,Wunderground v.1.15,2013-07-31 06:50:00,
2013-07-31 00:56:00,58.2,48.5,30.04,ESE,114,6.0,8.0,70,0.00,,,0.00,79,Wunderground v.1.15,2013-07-31 06:56:00,
2013-07-31 01:04:00,58.0,46.7,30.02,ESE,102,6.0,6.0,66,0.00,,,0.00,77,Wunderground v.1.15,2013-07-31 07:04:00,
2013-07-31 01:10:00,57.9,47.8,30.04,ESE,102,5.0,5.0,69,0.00,,,0.00,77,Wunderground v.1.15,2013-07-31 07:10:00,
2013-07-31 01:16:00,58.0,47.1,30.02,ESE,106,5.0,7.0,67,0.00,,,0.00,77,Wunderground v.1.15,2013-07-31 07:16:00,
2013-07-31 01:24:00,56.0,44.4,30.04,East,100,10.0,13.0,65,0.00,,,0.00,74,Wunderground v.1.15,2013-07-31 07:24:00,
2013-07-31 01:30:00,54.9,43.7,30.04,East,92,11.0,11.0,66,0.00,,,0.00,70,Wunderground v.1.15,2013-07-31 07:30:00,
2013-07-31 01:36:00,54.6,45.8,30.04,East,81,9.0,11.0,72,0.00,,,0.00,67,Wunderground v.1.15,2013-07-31 07:36:00,
2013-07-31 01:48:00,54.7,46.2,30.04,East,92,6.0,9.0,73,0.00,,,0.00,67,Wunderground v.1.15,2013-07-31 07:48:00,
2013-07-31 01:54:00,55.4,47.2,30.03,East,92,4.0,6.0,74,0.00,,,0.00,67,Wunderground v.1.15,2013-07-31 07:54:00,
2013-07-31 02:00:00,55.6,45.6,30.04,East,95,7.0,12.0,69,0.00,,,0.00,69,Wunderground v.1.15,2013-07-31 08:00:00,
2013-07-31 02:06:00,55.9,46.6,30.04,ESE,104,11.0,12.0,71,0.00,,,0.00,69,Wunderground v.1.15,2013-07-31 08:06:00,
2013-07-31 02:12:00,54.1,45.6,30.03,East,95,11.0,12.0,73,0.00,,,0.00,67,Wunderground v.1.15,2013-07-31 08:12:00,
2013-07-31 02:20:00,53.8,46.4,30.05,ESE,102,9.0,9.0,76,0.00,,,0.00,65,Wunderground v.1.15,2013-07-31 08:20:00,
2013-07-31 02:26:00,54.6,46.5,30.05,East,92,8.0,12.0,74,0.00,,,0.00,65,Wunderground v.1.15,2013-07-31 08:26:00,
2013-07-31 02:32:00,55.5,46.6,30.05,East,87,5.0,12.0,72,0.00,,,0.00,67,Wunderground v.1.15,2013-07-31 08:32:00,
2013-07-31 02:40:00,56.5,47.2,30.05,East,87,2.0,12.0,71,0.00,,,0.00,69,Wunderground v.1.15,2013-07-31 08:40:00,
2013-07-31 02:46:00,57.5,44.1,30.05,ENE,64,4.0,12.0,61,0.00,,,0.00,70,Wunderground v.1.15,2013-07-31 08:46:00,
2013-07-31 02:52:00,57.7,46.8,30.05,ENE,72,5.0,12.0,67,0.00,,,0.00,74,Wunderground v.1.15,2013-07-31 08:52:00,
2013-07-31 02:58:00,57.1,46.6,30.05,East,92,4.0,12.0,68,0.00,,,0.00,74,Wunderground v.1.15,2013-07-31 08:58:00,
2013-07-31 03:04:00,56.7,45.9,30.05,East,93,5.0,12.0,67,0.00,,,0.00,72,Wunderground v.1.15,2013-07-31 09:04:00,
2013-07-31 03:10:00,56.7,47.4,30.03,East,93,6.0,6.0,71,0.00,,,0.00,72,Wunderground v.1.15,2013-07-31 09:10:00,
2013-07-31 03:16:00,56.7,47.0,30.05,East,93,5.0,12.0,70,0.00,,,0.00,72,Wunderground v.1.15,2013-07-31 09:16:00,
2013-07-31 03:22:00,57.0,47.3,30.05,East,93,4.0,12.0,70,0.00,,,0.00,72,Wunderground v.1.15,2013-07-31 09:22:00,
2013-07-31 03:28:00,57.4,48.4,30.05,East,93,4.0,12.0,72,0.00,,,0.00,74,Wunderground v.1.15,2013-07-31 09:28:00,
2013-07-31 03:34:00,56.6,46.9,30.04,East,93,6.0,12.0,70,0.00,,,0.00,72,Wunderground v.1.15,2013-07-31 09:34:00,
2013-07-31 03:44:00,52.3,43.9,30.05,ESE,110,9.0,12.0,73,0.00,,,0.00,65,Wunderground v.1.15,2013-07-31 09:44:00,
2013-07-31 03:52:00,50.9,44.3,30.05,ESE,102,10.0,13.0,78,0.00,,,0.00,58,Wunderground v.1.15,2013-07-31 09:52:00,
2013-07-31 04:00:00,52.7,46.0,30.05,East,98,12.0,13.0,78,0.00,,,0.00,58,Wunderground v.1.15,2013-07-31 10:00:00,
2013-07-31 04:06:00,53.3,46.6,30.05,East,94,12.0,13.0,78,0.00,,,0.00,60,Wunderground v.1.15,2013-07-31 10:06:00,
2013-07-31 04:12:00,54.1,45.6,30.03,East,84,11.0,12.0,73,0.00,,,0.00,62,Wunderground v.1.15,2013-07-31 10:12:00,
2013-07-31 04:18:00,53.6,44.0,30.05,East,82,12.0,13.0,70,0.00,,,0.00,63,Wunderground v.1.15,2013-07-31 10:18:00,
2013-07-31 04:24:00,52.3,44.3,30.05,East,100,13.0,13.0,74,0.00,,,0.00,62,Wunderground v.1.15,2013-07-31 10:24:00,
2013-07-31 04:30:00,53.0,45.6,30.05,East,88,12.0,12.0,76,0.00,,,0.00,62,Wunderground v.1.15,2013-07-31 10:30:00,
2013-07-31 04:36:00,53.6,44.0,30.05,East,87,10.0,12.0,70,0.00,,,0.00,62,Wunderground v.1.15,2013-07-31 10:36:00,
2013-07-31 04:42:00,53.9,45.1,30.05,East,83,11.0,14.0,72,0.00,,,0.00,63,Wunderground v.1.15,2013-07-31 10:42:00,
2013-07-31 04:48:00,55.3,44.1,30.04,East,86,14.0,17.0,66,0.00,,,0.00,65,Wunderground v.1.15,2013-07-31 10:48:00,
2013-07-31 04:54:00,55.5,43.5,30.05,East,92,14.0,14.0,64,0.00,,,0.00,69,Wunderground v.1.15,2013-07-31 10:54:00,
2013-07-31 05:00:00,55.3,43.7,30.06,East,91,13.0,13.0,65,0.00,,,0.00,69,Wunderground v.1.15,2013-07-31 11:00:00,
2013-07-31 05:10:00,54.7,44.0,30.06,East,89,12.0,12.0,67,0.00,,,0.00,67,Wunderground v.1.15,2013-07-31 11:10:00,
2013-07-31 05:16:00,54.6,43.5,30.06,East,80,12.0,13.0,66,0.00,,,0.00,67,Wunderground v.1.15,2013-07-31 11:16:00,
2013-07-31 05:22:00,54.3,44.7,30.06,ENE,77,11.0,12.0,70,0.00,,,0.00,67,Wunderground v.1.15,2013-07-31 11:22:00,
2013-07-31 05:28:00,53.4,45.0,30.06,ESE,109,9.0,12.0,73,0.00,,,0.00,65,Wunderground v.1.15,2013-07-31 11:28:00,
2013-07-31 05:34:00,51.9,43.5,30.06,East,98,9.0,12.0,73,0.00,,,0.00,60,Wunderground v.1.15,2013-07-31 11:34:00,
2013-07-31 05:40:00,51.5,45.5,30.06,ENE,74,12.0,13.0,80,0.00,,,0.00,58,Wunderground v.1.15,2013-07-31 11:40:00,
2013-07-31 05:46:00,52.7,45.7,30.04,East,100,13.0,17.0,77,0.00,,,0.00,58,Wunderground v.1.15,2013-07-31 11:46:00,
2013-07-31 05:54:00,53.0,44.6,30.06,ESE,110,15.0,15.0,73,0.00,,,0.00,58,Wunderground v.1.15,2013-07-31 11:54:00,
2013-07-31 06:00:00,53.0,44.6,30.06,ESE,104,14.0,18.0,73,0.00,,,0.00,56,Wunderground v.1.15,2013-07-31 12:00:00,
2013-07-31 06:06:00,53.2,44.8,30.05,ESE,102,14.0,18.0,73,0.00,,,0.00,105,Wunderground v.1.15,2013-07-31 12:06:00,
2013-07-31 06:12:00,52.6,43.1,30.06,ESE,110,13.0,18.0,70,0.00,,,0.00,88,Wunderground v.1.15,2013-07-31 12:12:00,
2013-07-31 06:18:00,51.5,43.5,30.06,East,82,12.0,18.0,74,0.00,,,0.00,51,Wunderground v.1.15,2013-07-31 12:18:00,
2013-07-31 06:24:00,51.4,44.4,30.06,ESE,112,13.0,18.0,77,0.00,,,0.00,39,Wunderground v.1.15,2013-07-31 12:24:00,
2013-07-31 06:30:00,51.2,43.5,30.06,East,86,13.0,13.0,75,0.00,,,0.00,7,Wunderground v.1.15,2013-07-31 12:30:00,
2013-07-31 06:36:00,51.8,43.8,30.06,East,94,11.0,18.0,74,0.00,,,0.00,0,Wunderground v.1.15,2013-07-31 12:36:00,
2013-07-31 06:44:00,52.4,44.0,30.06,ESE,108,12.0,18.0,73,0.00,,,0.00,0,Wunderground v.1.15,2013-07-31 12:44:00,
2013-07-31 06:50:00,52.0,43.6,30.07,ESE,111,12.0,18.0,73,0.00,,,0.00,0,Wunderground v.1.15,2013-07-31 12:50:00,
2013-07-31 06:56:00,52.4,44.0,30.06,East,95,14.0,18.0,73,0.00,,,0.00,0,Wunderground v.1.15,2013-07-31 12:56:00,
2013-07-31 07:06:00,53.1,45.4,30.06,East,98,16.0,18.0,75,0.00,,,0.00,0,Wunderground v.1.15,2013-07-31 13:06:00,
2013-07-31 07:12:00,53.5,45.8,30.06,ESE,106,15.0,18.0,75,0.00,,,0.00,0,Wunderground v.1.15,2013-07-31 13:12:00,
2013-07-31 07:24:00,53.3,44.9,30.05,ESE,107,12.0,18.0,73,0.00,,,0.00,0,Wunderground v.1.15,2013-07-31 13:24:00,
2013-07-31 07:30:00,53.0,43.8,30.06,ESE,102,13.0,18.0,71,0.00,,,0.00,0,Wunderground v.1.15,2013-07-31 13:30:00,
2013-07-31 07:40:00,53.9,43.6,30.06,East,95,13.0,18.0,68,0.00,,,0.00,0,Wunderground v.1.15,2013-07-31 13:40:00,
2013-07-31 07:48:00,54.3,45.1,30.06,ESE,103,11.0,18.0,71,0.00,,,0.00,0,Wunderground v.1.15,2013-07-31 13:48:00,
2013-07-31 07:54:00,54.5,44.2,30.06,ESE,106,11.0,18.0,68,0.00,,,0.00,0,Wunderground v.1.15,2013-07-31 13:54:00,
2013-07-31 08:00:00,55.1,44.3,30.06,ESE,114,11.0,18.0,67,0.00,,,0.00,0,Wunderground v.1.15,2013-07-31 14:00:00,
2013-07-31 08:06:00,55.9,44.3,30.06,ESE,110,10.0,18.0,65,0.00,,,0.00,0,Wunderground v.1.15,2013-07-31 14:06:00,
2013-07-31 08:12:00,56.7,45.5,30.06,ESE,106,10.0,18.0,66,0.00,,,0.00,0,Wunderground v.1.15,2013-07-31 14:12:00,
2013-07-31 08:18:00,57.5,45.0,30.06,ESE,104,9.0,18.0,63,0.00,,,0.00,0,Wunderground v.1.15,2013-07-31 14:18:00,
2013-07-31 08:24:00,58.0,45.9,30.06,North,3,7.0,18.0,64,0.00,,,0.00,0,Wunderground v.1.15,2013-07-31 14:24:00,
2013-07-31 08:30:00,58.5,45.9,30.04,North,3,4.0,4.0,63,0.00,,,0.00,0,Wunderground v.1.15,2013-07-31 14:30:00,
2013-07-31 08:36:00,58.6,45.2,30.05,North,3,3.0,18.0,61,0.00,,,0.00,0,Wunderground v.1.15,2013-07-31 14:36:00,
2013-07-31 08:46:00,59.3,45.4,30.04,North,3,1.0,18.0,60,0.00,,,0.00,0,Wunderground v.1.15,2013-07-31 14:46:00,
2013-07-31 08:52:00,59.9,45.5,30.06,North,3,1.0,18.0,59,0.00,,,0.00,0,Wunderground v.1.15,2013-07-31 14:52:00,
2013-07-31 08:58:00,60.8,45.5,30.05,North,3,1.0,18.0,57,0.00,,,0.00,0,Wunderground v.1.15,2013-07-31 14:58:00,
2013-07-31 09:04:00,61.3,45.0,30.03,North,4,2.0,18.0,55,0.00,,,0.00,0,Wunderground v.1.15,2013-07-31 15:04:00,
2013-07-31 09:12:00,62.1,45.7,30.05,North,2,3.0,18.0,55,0.00,,,0.00,0,Wunderground v.1.15,2013-07-31 15:12:00,
2013-07-31 09:18:00,62.6,45.7,30.03,NNW,347,3.0,18.0,54,0.00,,,0.00,0,Wunderground v.1.15,2013-07-31 15:18:00,
2013-07-31 09:26:00,63.0,46.1,30.03,NNW,347,3.0,18.0,54,0.00,,,0.00,0,Wunderground v.1.15,2013-07-31 15:26:00,
2013-07-31 09:32:00,63.7,46.2,30.03,NNW,347,3.0,18.0,53,0.00,,,0.00,0,Wunderground v.1.15,2013-07-31 15:32:00,
2013-07-31 09:38:00,64.4,47.4,30.03,NNW,347,4.0,18.0,54,0.00,,,0.00,0,Wunderground v.1.15,2013-07-31 15:38:00,
2013-07-31 09:44:00,64.8,46.8,30.03,NNW,347,3.0,18.0,52,0.00,,,0.00,0,Wunderground v.1.15,2013-07-31 15:44:00,
2013-07-31 09:56:00,65.8,46.1,30.02,WNW,297,4.0,18.0,49,0.00,,,0.00,0,Wunderground v.1.15,2013-07-31 15:56:00,
2013-07-31 10:08:00,65.9,46.7,30.02,West,280,4.0,18.0,50,0.00,,,0.00,0,Wunderground v.1.15,2013-07-31 16:08:00,
2013-07-31 10:14:00,66.0,45.7,30.01,West,280,5.0,18.0,48,0.00,,,0.00,0,Wunderground v.1.15,2013-07-31 16:14:00,
2013-07-31 10:20:00,66.3,46.0,30.01,West,280,5.0,5.0,48,0.00,,,0.00,0,Wunderground v.1.15,2013-07-31 16:20:00,
2013-07-31 10:26:00,66.9,46.0,30.01,West,280,5.0,18.0,47,0.00,,,0.00,0,Wunderground v.1.15,2013-07-31 16:26:00,
2013-07-31 10:34:00,67.8,47.9,30.01,West,268,5.0,18.0,49,0.00,,,0.00,0,Wunderground v.1.15,2013-07-31 16:34:00,
2013-07-31 10:40:00,68.5,48.6,30.00,West,268,4.0,18.0,49,0.00,,,0.00,0,Wunderground v.1.15,2013-07-31 16:40:00,
2013-07-31 10:50:00,69.8,48.7,30.00,West,275,4.0,18.0,47,0.00,,,0.00,0,Wunderground v.1.15,2013-07-31 16:50:00,
2013-07-31 10:56:00,70.4,49.2,30.00,WSW,258,5.0,18.0,47,0.00,,,0.00,0,Wunderground v.1.15,2013-07-31 16:56:00,
2013-07-31 11:02:00,70.7,49.5,29.99,West,264,5.0,18.0,47,0.00,,,0.00,0,Wunderground v.1.15,2013-07-31 17:02:00,
2013-07-31 11:08:00,71.2,51.1,29.99,West,275,5.0,18.0,49,0.00,,,0.00,0,Wunderground v.1.15,2013-07-31 17:08:00,
2013-07-31 11:14:00,72.2,50.8,29.99,WNW,289,4.0,18.0,47,0.00,,,0.00,0,Wunderground v.1.15,2013-07-31 17:14:00,
2013-07-31 11:20:00,72.6,48.8,29.98,West,270,5.0,18.0,43,0.00,,,0.00,0,Wunderground v.1.15,2013-07-31 17:20:00,
2013-07-31 11:26:00,72.8,50.8,29.98,West,269,6.0,18.0,46,0.00,,,0.00,0,Wunderground v.1.15,2013-07-31 17:26:00,
2013-07-31 11:34:00,73.2,50.6,29.97,West,264,7.0,18.0,45,0.00,,,0.00,0,Wunderground v.1.15,2013-07-31 17:34:00,
2013-07-31 11:40:00,73.7,48.5,29.97,West,275,7.0,18.0,41,0.00,,,0.00,0,Wunderground v.1.15,2013-07-31 17:40:00,
2013-07-31 11:46:00,74.3,49.7,29.97,West,266,7.0,18.0,42,0.00,,,0.00,0,Wunderground v.1.15,2013-07-31 17:46:00,
2013-07-31 11:52:00,74.7,49.4,29.96,West,263,6.0,18.0,41,0.00,,,0.00,0,Wunderground v.1.15,2013-07-31 17:52:00,
2013-07-31 11:58:00,74.9,50.3,29.96,West,263,6.0,18.0,42,0.00,,,0.00,0,Wunderground v.1.15,2013-07-31 17:58:00,
2013-07-31 12:08:00,75.5,48.1,29.96,WSW,257,5.0,18.0,38,0.00,,,0.00,0,Wunderground v.1.15,2013-07-31 18:08:00,
2013-07-31 12:14:00,76.1,44.9,29.95,WSW,257,4.0,18.0,33,0.00,,,0.00,0,Wunderground v.1.15,2013-07-31 18:14:00,
2013-07-31 12:20:00,77.0,44.9,29.96,WSW,257,3.0,18.0,32,0.00,,,0.00,0,Wunderground v.1.15,2013-07-31 18:20:00,
2013-07-31 12:28:00,77.8,45.6,29.95,WSW,257,3.0,18.0,32,0.00,,,0.00,0,Wunderground v.1.15,2013-07-31 18:28:00,
2013-07-31 12:34:00,78.4,44.4,29.94,WSW,257,3.0,18.0,30,0.00,,,0.00,0,Wunderground v.1.15,2013-07-31 18:34:00,
2013-07-31 12:40:00,78.5,40.7,29.94,WSW,257,4.0,18.0,26,0.00,,,0.00,0,Wunderground v.1.15,2013-07-31 18:40:00,
2013-07-31 12:46:00,78.5,41.7,29.93,WSW,257,5.0,18.0,27,0.00,,,0.00,0,Wunderground v.1.15,2013-07-31 18:46:00,
2013-07-31 12:52:00,78.6,42.8,29.93,WSW,257,5.0,18.0,28,0.00,,,0.00,0,Wunderground v.1.15,2013-07-31 18:52:00,
2013-07-31 12:58:00,78.9,44.8,29.93,WSW,257,5.0,18.0,30,0.00,,,0.00,0,Wunderground v.1.15,2013-07-31 18:58:00,
2013-07-31 13:04:00,79.2,41.3,29.92,WSW,257,5.0,18.0,26,0.00,,,0.00,0,Wunderground v.1.15,2013-07-31 19:04:00,
2013-07-31 13:10:00,79.6,37.4,29.92,WSW,251,6.0,18.0,22,0.00,,,0.00,0,Wunderground v.1.15,2013-07-31 19:10:00,
2013-07-31 13:16:00,80.1,37.8,29.92,WSW,249,7.0,18.0,22,0.00,,,0.00,0,Wunderground v.1.15,2013-07-31 19:16:00,
2013-07-31 13:22:00,80.4,35.6,29.92,WSW,256,6.0,18.0,20,0.00,,,0.00,0,Wunderground v.1.15,2013-07-31 19:22:00,
2013-07-31 13:28:00,80.5,34.4,29.91,West,268,6.0,18.0,19,0.00,,,0.00,0,Wunderground v.1.15,2013-07-31 19:28:00,
2013-07-31 13:34:00,80.8,39.5,29.91,West,268,6.0,18.0,23,0.00,,,0.00,0,Wunderground v.1.15,2013-07-31 19:34:00,
2013-07-31 13:40:00,81.3,36.4,29.91,West,268,4.0,4.0,20,0.00,,,0.00,0,Wunderground v.1.15,2013-07-31 19:40:00,
2013-07-31 13:46:00,82.0,39.4,29.90,West,268,2.0,18.0,22,0.00,,,0.00,0,Wunderground v.1.15,2013-07-31 19:46:00,
2013-07-31 13:52:00,82.6,43.2,29.90,NNW,336,2.0,5.0,25,0.00,,,0.00,0,Wunderground v.1.15,2013-07-31 19:52:00,
2013-07-31 13:58:00,83.0,35.1,29.90,North,2,3.0,18.0,18,0.00,,,0.00,0,Wunderground v.1.15,2013-07-31 19:58:00,
2013-07-31 14:04:00,83.3,33.9,29.89,North,356,4.0,18.0,17,0.00,,,0.00,0,Wunderground v.1.15,2013-07-31 20:04:00,
2013-07-31 14:10:00,83.8,37.1,29.88,WNW,285,3.0,18.0,19,0.00,,,0.00,0,Wunderground v.1.15,2013-07-31 20:10:00,
2013-07-31 14:16:00,83.8,34.3,29.88,SW,232,4.0,18.0,17,0.00,,,0.00,0,Wunderground v.1.15,2013-07-31 20:16:00,
2013-07-31 14:22:00,83.4,35.4,29.88,SW,224,6.0,18.0,18,0.00,,,0.00,0,Wunderground v.1.15,2013-07-31 20:22:00,
2013-07-31 14:28:00,83.6,35.6,29.87,SW,221,5.0,18.0,18,0.00,,,0.00,0,Wunderground v.1.15,2013-07-31 20:28:00,
2013-07-31 14:36:00,84.2,38.8,29.87,West,271,4.0,18.0,20,0.00,,,0.00,0,Wunderground v.1.15,2013-07-31 20:36:00,
2013-07-31 14:42:00,83.6,39.5,29.86,NW,313,6.0,18.0,21,0.00,,,0.00,0,Wunderground v.1.15,2013-07-31 20:42:00,
2013-07-31 14:48:00,83.5,39.4,29.86,West,275,6.0,18.0,21,0.00,,,0.00,0,Wunderground v.1.15,2013-07-31 20:48:00,
2013-07-31 14:54:00,83.6,37.0,29.86,SW,222,6.0,10.0,19,0.00,,,0.00,0,Wunderground v.1.15,2013-07-31 20:54:00,
2013-07-31 15:00:00,82.9,36.4,29.85,West,261,8.0,15.0,19,0.00,,,0.00,0,Wunderground v.1.15,2013-07-31 21:00:00,
2013-07-31 15:06:00,82.5,45.1,29.85,West,262,10.0,15.0,27,0.00,,,0.00,0,Wunderground v.1.15,2013-07-31 21:06:00,
2013-07-31 15:12:00,82.5,36.1,29.85,SW,233,10.0,15.0,19,0.00,,,0.00,0,Wunderground v.1.15,2013-07-31 21:12:00,
2013-07-31 15:18:00,83.1,33.8,29.85,West,280,8.0,15.0,17,0.00,,,0.00,0,Wunderground v.1.15,2013-07-31 21:18:00,
2013-07-31 15:24:00,83.5,34.1,29.84,West,268,7.0,15.0,17,0.00,,,0.00,0,Wunderground v.1.15,2013-07-31 21:24:00,
2013-07-31 15:30:00,83.1,36.6,29.84,West,269,9.0,15.0,19,0.00,,,0.00,0,Wunderground v.1.15,2013-07-31 21:30:00,
2013-07-31 15:36:00,82.9,41.3,29.84,West,264,9.0,15.0,23,0.00,,,0.00,0,Wunderground v.1.15,2013-07-31 21:36:00,
2013-07-31 15:42:00,82.5,44.1,29.84,West,263,11.0,15.0,26,0.00,,,0.00,0,Wunderground v.1.15,2013-07-31 21:42:00,
2013-07-31 15:48:00,82.6,39.9,29.84,WSW,237,11.0,15.0,22,0.00,,,0.00,0,Wunderground v.1.15,2013-07-31 21:48:00,
2013-07-31 15:58:00,83.1,35.2,29.83,SW,222,8.0,15.0,18,0.00,,,0.00,0,Wunderground v.1.15,2013-07-31 21:58:00,
2013-07-31 16:04:00,83.0,35.1,29.83,SW,231,8.0,15.0,18,0.00,,,0.00,0,Wunderground v.1.15,2013-07-31 22:04:00,
2013-07-31 16:10:00,83.2,36.6,29.83,SW,229,8.0,8.0,19,0.00,,,0.00,0,Wunderground v.1.15,2013-07-31 22:10:00,
2013-07-31 16:16:00,83.1,39.1,29.83,WSW,249,8.0,15.0,21,0.00,,,0.00,0,Wunderground v.1.15,2013-07-31 22:16:00,
2013-07-31 16:22:00,83.4,42.8,29.83,WSW,240,5.0,15.0,24,0.00,,,0.00,0,Wunderground v.1.15,2013-07-31 22:22:00,
2013-07-31 16:28:00,83.6,34.2,29.83,ESE,108,6.0,15.0,17,0.00,,,0.00,0,Wunderground v.1.15,2013-07-31 22:28:00,
2013-07-31 16:34:00,83.6,32.6,29.82,ENE,69,10.0,16.0,16,0.00,,,0.00,0,Wunderground v.1.15,2013-07-31 22:34:00,
2013-07-31 16:40:00,83.5,32.6,29.82,ENE,73,13.0,16.0,16,0.00,,,0.00,0,Wunderground v.1.15,2013-07-31 22:40:00,
2013-07-31 16:46:00,83.2,32.3,29.82,East,85,16.0,16.0,16,0.00,,,0.00,0,Wunderground v.1.15,2013-07-31 22:46:00,
2013-07-31 16:52:00,82.8,43.4,29.82,ENE,75,13.0,15.0,25,0.00,,,0.00,0,Wunderground v.1.15,2013-07-31 22:52:00,
2013-07-31 16:58:00,82.9,40.1,29.82,NE,54,11.0,15.0,22,0.00,,,0.00,0,Wunderground v.1.15,2013-07-31 22:58:00,
2013-07-31 17:04:00,82.9,38.9,29.82,ENE,73,11.0,17.0,21,0.00,,,0.00,0,Wunderground v.1.15,2013-07-31 23:04:00,
2013-07-31 17:12:00,82.7,38.8,29.82,ESE,111,17.0,17.0,21,0.00,,,0.00,0,Wunderground v.1.15,2013-07-31 23:12:00,
2013-07-31 17:18:00,81.9,34.2,29.82,East,95,16.0,17.0,18,0.00,,,0.00,0,Wunderground v.1.15,2013-07-31 23:18:00,
2013-07-31 17:24:00,81.5,35.2,29.82,ESE,108,13.0,15.0,19,0.00,,,0.00,0,Wunderground v.1.15,2013-07-31 23:24:00,
2013-07-31 17:30:00,81.1,40.9,29.82,ENE,73,8.0,15.0,24,0.00,,,0.00,0,Wunderground v.1.15,2013-07-31 23:30:00,
2013-07-31 17:36:00,81.2,33.6,29.82,NE,51,7.0,15.0,18,0.00,,,0.00,0,Wunderground v.1.15,2013-07-31 23:36:00,
2013-07-31 17:42:00,81.9,31.3,29.82,NNW,327,8.0,15.0,16,0.00,,,0.00,0,Wunderground v.1.15,2013-07-31 23:42:00,
2013-07-31 17:48:00,82.1,35.7,29.82,ENE,76,6.0,15.0,19,0.00,,,0.00,0,Wunderground v.1.15,2013-07-31 23:48:00,
2013-07-31 17:54:00,81.1,36.2,29.82,ESE,105,7.0,15.0,20,0.00,,,0.00,0,Wunderground v.1.15,2013-07-31 23:54:00,
2013-07-31 18:00:00,80.4,39.2,29.82,ESE,114,12.0,12.0,23,0.00,,,0.00,0,Wunderground v.1.15,2013-08-01 00:00:00,
2013-07-31 18:06:00,80.3,48.6,29.82,ESE,122,11.0,15.0,33,0.00,,,0.00,0,Wunderground v.1.15,2013-08-01 00:06:00,
2013-07-31 18:14:00,80.7,34.6,29.81,ESE,111,7.0,15.0,19,0.00,,,0.00,0,Wunderground v.1.15,2013-08-01 00:14:00,
2013-07-31 18:20:00,80.8,37.2,29.82,ESE,114,6.0,15.0,21,0.00,,,0.00,0,Wunderground v.1.15,2013-08-01 00:20:00,
2013-07-31 18:26:00,80.3,42.3,29.82,ESE,107,7.0,15.0,26,0.00,,,0.00,0,Wunderground v.1.15,2013-08-01 00:26:00,
2013-07-31 18:32:00,79.3,45.2,29.82,East,100,9.0,10.0,30,0.00,,,0.00,0,Wunderground v.1.15,2013-08-01 00:32:00,
2013-07-31 18:38:00,79.3,44.3,29.82,NE,50,9.0,15.0,29,0.00,,,0.00,0,Wunderground v.1.15,2013-08-01 00:38:00,
2013-07-31 18:46:00,80.1,37.8,29.83,ENE,58,10.0,15.0,22,0.00,,,0.00,0,Wunderground v.1.15,2013-08-01 00:46:00,
2013-07-31 18:52:00,79.7,45.5,29.83,ESE,113,9.0,10.0,30,0.00,,,0.00,0,Wunderground v.1.15,2013-08-01 00:52:00,
2013-07-31 18:58:00,78.9,40.1,29.83,East,93,11.0,15.0,25,0.00,,,0.00,0,Wunderground v.1.15,2013-08-01 00:58:00,
2013-07-31 19:04:00,78.9,40.1,29.82,ESE,104,12.0,21.0,25,0.00,,,0.00,5,Wunderground v.1.15,2013-08-01 01:04:00,
2013-07-31 19:10:00,78.9,41.1,29.83,East,101,16.0,16.0,26,0.00,,,0.00,0,Wunderground v.1.15,2013-08-01 01:10:00,
2013-07-31 19:16:00,78.5,41.7,29.82,ESE,109,13.0,16.0,27,0.00,,,0.00,0,Wunderground v.1.15,2013-08-01 01:16:00,
2013-07-31 19:22:00,78.3,40.6,29.82,ENE,68,9.0,22.0,26,0.00,,,0.00,0,Wunderground v.1.15,2013-08-01 01:22:00,
2013-07-31 19:28:00,78.9,35.6,29.82,NE,41,15.0,25.0,21,0.00,,,0.00,0,Wunderground v.1.15,2013-08-01 01:28:00,
2013-07-31 19:34:00,79.4,36.0,29.81,ENE,70,10.0,15.0,21,0.00,,,0.00,0,Wunderground v.1.15,2013-08-01 01:34:00,
2013-07-31 19:40:00,79.8,35.1,29.81,East,95,3.0,3.0,20,0.00,,,0.00,0,Wunderground v.1.15,2013-08-01 01:40:00,
2013-07-31 19:46:00,79.9,35.2,29.81,East,95,2.0,15.0,20,0.00,,,0.00,0,Wunderground v.1.15,2013-08-01 01:46:00,
2013-07-31 19:52:00,80.0,34.0,29.80,WNW,285,1.0,15.0,19,0.00,,,0.00,0,Wunderground v.1.15,2013-08-01 01:52:00,
2013-07-31 19:58:00,80.0,35.3,29.80,WNW,285,3.0,15.0,20,0.00,,,0.00,0,Wunderground v.1.15,2013-08-01 01:58:00,
2013-07-31 20:04:00,79.9,35.2,29.80,WNW,285,1.0,15.0,20,0.00,,,0.00,0,Wunderground v.1.15,2013-08-01 02:04:00,
2013-07-31 20:10:00,79.9,35.2,29.80,WNW,285,0.0,15.0,20,0.00,,,0.00,0,Wunderground v.1.15,2013-08-01 02:10:00,
2013-07-31 20:16:00,79.9,38.8,29.80,NNE,27,1.0,15.0,23,0.00,,,0.00,14,Wunderground v.1.15,2013-08-01 02:16:00,
2013-07-31 20:22:00,79.5,39.5,29.80,NE,54,5.0,15.0,24,0.00,,,0.00,0,Wunderground v.1.15,2013-08-01 02:22:00,
2013-07-31 20:28:00,79.1,37.0,29.81,NE,48,7.0,15.0,22,0.00,,,0.00,0,Wunderground v.1.15,2013-08-01 02:28:00,
2013-07-31 20:36:00,77.7,43.8,29.81,East,85,9.0,15.0,30,0.00,,,0.00,33,Wunderground v.1.15,2013-08-01 02:36:00,
2013-07-31 20:42:00,77.3,41.6,29.81,ENE,61,10.0,15.0,28,0.00,,,0.00,65,Wunderground v.1.15,2013-08-01 02:42:00,
2013-07-31 20:48:00,77.1,39.6,29.80,NE,56,7.0,15.0,26,0.00,,,0.00,125,Wunderground v.1.15,2013-08-01 02:48:00,
2013-07-31 20:54:00,77.2,41.6,29.80,NNE,31,4.0,15.0,28,0.00,,,0.00,148,Wunderground v.1.15,2013-08-01 02:54:00,
2013-07-31 21:00:00,77.1,38.6,29.80,NNE,25,5.0,15.0,25,0.00,,,0.00,158,Wunderground v.1.15,2013-08-01 03:00:00,
2013-07-31 21:06:00,76.7,39.2,29.81,NNE,28,8.0,15.0,26,0.00,,,0.00,165,Wunderground v.1.15,2013-08-01 03:06:00,
2013-07-31 21:12:00,76.5,39.0,29.81,NNE,29,9.0,10.0,26,0.00,,,0.00,171,Wunderground v.1.15,2013-08-01 03:12:00,
2013-07-31 21:18:00,76.7,39.2,29.81,NNE,26,10.0,15.0,26,0.00,,,0.00,176,Wunderground v.1.15,2013-08-01 03:18:00,
2013-07-31 21:24:00,76.7,39.2,29.81,NNE,24,10.0,15.0,26,0.00,,,0.00,178,Wunderground v.1.15,2013-08-01 03:24:00,
2013-07-31 21:30:00,76.2,37.8,29.81,NNE,22,10.0,10.0,25,0.00,,,0.00,176,Wunderground v.1.15,2013-08-01 03:30:00,
2013-07-31 21:38:00,75.9,38.5,29.82,NNE,16,10.0,15.0,26,0.00,,,0.00,174,Wunderground v.1.15,2013-08-01 03:38:00,
2013-07-31 21:44:00,75.3,50.0,29.82,WSW,256,9.0,15.0,41,0.00,,,0.00,172,Wunderground v.1.15,2013-08-01 03:44:00,
2013-07-31 21:50:00,73.0,43.7,29.82,SW,225,6.0,6.0,35,0.00,,,0.00,162,Wunderground v.1.15,2013-08-01 03:50:00,
2013-07-31 21:56:00,72.0,46.3,29.82,SW,220,4.0,15.0,40,0.00,,,0.00,153,Wunderground v.1.15,2013-08-01 03:56:00,
2013-07-31 22:02:00,71.9,47.6,29.82,West,271,3.0,15.0,42,0.00,,,0.00,149,Wunderground v.1.15,2013-08-01 04:02:00,
2013-07-31 22:08:00,71.2,47.6,29.82,WNW,290,3.0,15.0,43,0.00,,,0.00,146,Wunderground v.1.15,2013-08-01 04:08:00,
2013-07-31 22:14:00,70.2,48.4,29.82,WSW,242,5.0,15.0,46,0.00,,,0.00,141,Wunderground v.1.15,2013-08-01 04:14:00,
2013-07-31 22:20:00,69.2,44.5,29.82,SW,226,5.0,5.0,41,0.00,,,0.00,135,Wunderground v.1.15,2013-08-01 04:20:00,
2013-07-31 22:26:00,69.4,44.0,29.82,SW,221,4.0,15.0,40,0.00,,,0.00,134,Wunderground v.1.15,2013-08-01 04:26:00,
2013-07-31 22:34:00,69.7,47.4,29.82,NNW,348,3.0,15.0,45,0.00,,,0.00,135,Wunderground v.1.15,2013-08-01 04:34:00,
2013-07-31 22:42:00,70.0,45.8,29.82,NNW,348,2.0,15.0,42,0.00,,,0.00,135,Wunderground v.1.15,2013-08-01 04:42:00,
2013-07-31 22:48:00,70.1,42.6,29.81,NNW,347,3.0,15.0,37,0.00,,,0.00,135,Wunderground v.1.15,2013-08-01 04:48:00,
2013-07-31 22:54:00,70.6,40.9,29.81,NNW,347,4.0,15.0,34,0.00,,,0.00,135,Wunderground v.1.15,2013-08-01 04:54:00,
2013-07-31 23:00:00,70.9,40.3,29.81,NNW,348,4.0,15.0,33,0.00,,,0.00,137,Wunderground v.1.15,2013-08-01 05:00:00,
2013-07-31 23:08:00,71.4,45.1,29.81,NNW,348,2.0,15.0,39,0.00,,,0.00,137,Wunderground v.1.15,2013-08-01 05:08:00,
2013-07-31 23:14:00,71.3,39.9,29.81,NNW,348,1.0,15.0,32,0.00,,,0.00,139,Wunderground v.1.15,2013-08-01 05:14:00,
2013-07-31 23:20:00,71.2,45.6,29.81,NNW,348,1.0,15.0,40,0.00,,,0.00,137,Wunderground v.1.15,2013-08-01 05:20:00,
2013-07-31 23:26:00,71.2,50.5,29.80,NNE,14,1.0,15.0,48,0.00,,,0.00,139,Wunderground v.1.15,2013-08-01 05:26:00,
2013-07-31 23:32:00,69.1,48.6,29.80,East,94,6.0,15.0,48,0.00,,,0.00,134,Wunderground v.1.15,2013-08-01 05:32:00,
2013-07-31 23:38:00,68.3,48.9,29.80,East,93,8.0,15.0,50,0.00,,,0.00,128,Wunderground v.1.15,2013-08-01 05:38:00,
2013-07-31 23:44:00,68.8,48.9,29.80,East,93,5.0,15.0,49,0.00,,,0.00,128,Wunderground v.1.15,2013-08-01 05:44:00,
2013-07-31 23:50:00,69.0,51.2,29.80,East,93,3.0,3.0,53,0.00,,,0.00,128,Wunderground v.1.15,2013-08-01 05:50:00,
2013-07-31 23:56:00,68.8,51.5,29.80,East,93,2.0,15.0,54,0.00,,,0.00,125,Wunderground v.1.15,2013-08-01 05:56:00,